Time,TemperatureF,DewpointF,PressureIn,WindDirection,WindDirectionDegrees,WindSpeedMPH,WindSpeedGustMPH,Humidity,HourlyPrecipIn,Conditions,Clouds,dailyrainin,SoftwareType,DateUTC
2013-08-02 00:10:00,62.6,62.0,29.72,WNW,292,0.0,-999.0,98,-99.99,,,0.00,Acu-Link.com,2013-08-02 04:10:00,
2013-08-02 00:26:00,62.2,61.6,29.72,WSW,247,0.0,-999.0,98,-99.99,,,0.00,Acu-Link.com,2013-08-02 04:26:00,
2013-08-02 00:41:00,62.6,62.0,29.73,SW,225,0.0,-999.0,98,-99.99,,,0.00,Acu-Link.com,2013-08-02 04:41:00,
2013-08-02 01:11:00,61.7,61.1,29.73,West,270,0.0,-999.0,98,-99.99,,,0.00,Acu-Link.com,2013-08-02 05:11:00,
2013-08-02 01:26:00,61.0,60.4,29.73,West,270,0.0,-999.0,98,-99.99,,,0.00,Acu-Link.com,2013-08-02 05:26:00,
2013-08-02 01:42:00,60.6,60.0,29.73,West,270,0.0,-999.0,98,-99.99,,,0.00,Acu-Link.com,2013-08-02 05:42:00,
2013-08-02 01:57:00,60.4,59.8,29.73,WNW,292,0.0,-999.0,98,-99.99,,,0.00,Acu-Link.com,2013-08-02 05:57:00,
2013-08-02 02:12:00,60.1,59.5,29.73,SSW,202,0.0,-999.0,98,-99.99,,,0.00,Acu-Link.com,2013-08-02 06:12:00,
2013-08-02 02:27:00,59.7,59.1,29.72,West,270,0.0,-999.0,98,-99.99,,,0.00,Acu-Link.com,2013-08-02 06:27:00,
2013-08-02 02:42:00,59.7,59.1,29.72,West,270,0.0,-999.0,98,-99.99,,,0.00,Acu-Link.com,2013-08-02 06:42:00,
2013-08-02 02:57:00,59.7,59.1,29.73,SSW,202,0.0,-999.0,98,-99.99,,,0.00,Acu-Link.com,2013-08-02 06:57:00,
2013-08-02 03:12:00,59.0,58.4,29.72,South,180,0.0,-999.0,98,-99.99,,,0.00,Acu-Link.com,2013-08-02 07:12:00,
2013-08-02 03:27:00,58.6,58.0,29.72,West,270,0.0,-999.0,98,-99.99,,,0.00,Acu-Link.com,2013-08-02 07:27:00,
2013-08-02 03:42:00,59.4,58.8,29.72,West,270,0.0,-999.0,98,-99.99,,,0.00,Acu-Link.com,2013-08-02 07:42:00,
2013-08-02 03:57:00,59.2,58.6,29.72,SSW,202,0.0,-999.0,98,-99.99,,,0.00,Acu-Link.com,2013-08-02 07:57:00,
2013-08-02 04:13:00,59.0,58.4,29.73,West,270,0.0,-999.0,98,-99.99,,,0.00,Acu-Link.com,2013-08-02 08:13:00,
2013-08-02 04:28:00,59.0,58.4,29.73,WSW,247,0.0,-999.0,98,-99.99,,,0.00,Acu-Link.com,2013-08-02 08:28:00,
2013-08-02 04:44:00,59.0,58.4,29.73,SSW,202,0.0,-999.0,98,-99.99,,,0.00,Acu-Link.com,2013-08-02 08:44:00,
2013-08-02 04:59:00,58.5,57.9,29.73,WSW,247,0.0,-999.0,98,-99.99,,,0.00,Acu-Link.com,2013-08-02 08:59:00,
2013-08-02 05:14:00,58.8,58.2,29.74,SW,225,0.0,-999.0,98,-99.99,,,0.00,Acu-Link.com,2013-08-02 09:14:00,
2013-08-02 05:29:00,58.6,58.0,29.74,West,270,0.0,-999.0,98,-99.99,,,0.00,Acu-Link.com,2013-08-02 09:29:00,
2013-08-02 05:44:00,58.5,57.9,29.75,West,270,0.0,-999.0,98,-99.99,,,0.00,Acu-Link.com,2013-08-02 09:44:00,
2013-08-02 05:59:00,58.5,57.9,29.75,WSW,247,0.0,-999.0,98,-99.99,,,0.00,Acu-Link.com,2013-08-02 09:59:00,
2013-08-02 06:14:00,58.6,58.0,29.75,WSW,247,0.0,-999.0,98,-99.99,,,0.00,Acu-Link.com,2013-08-02 10:14:00,
2013-08-02 06:29:00,58.6,58.0,29.76,WSW,247,0.0,-999.0,98,-99.99,,,0.00,Acu-Link.com,2013-08-02 10:29:00,
2013-08-02 06:45:00,58.6,58.0,29.76,West,270,1.1,-999.0,98,-99.99,,,0.00,Acu-Link.com,2013-08-02 10:45:00,
2013-08-02 07:00:00,59.0,58.4,29.76,WSW,247,1.1,-999.0,98,-99.99,,,0.00,Acu-Link.com,2013-08-02 11:00:00,
2013-08-02 07:15:00,61.0,60.4,29.76,WSW,247,0.0,-999.0,98,-99.99,,,0.00,Acu-Link.com,2013-08-02 11:15:00,
2013-08-02 07:30:00,62.1,61.5,29.76,WSW,247,0.0,-999.0,98,-99.99,,,0.00,Acu-Link.com,2013-08-02 11:30:00,
2013-08-02 07:45:00,63.7,63.1,29.77,West,270,0.0,-999.0,98,-99.99,,,0.00,Acu-Link.com,2013-08-02 11:45:00,
2013-08-02 08:00:00,66.2,65.6,29.77,WSW,247,0.0,-999.0,98,-99.99,,,0.00,Acu-Link.com,2013-08-02 12:00:00,
2013-08-02 08:15:00,67.5,66.9,29.77,SSW,202,0.0,-999.0,98,-99.99,,,0.00,Acu-Link.com,2013-08-02 12:15:00,
2013-08-02 08:31:00,70.0,66.3,29.76,SSW,202,0.0,-999.0,88,-99.99,,,0.00,Acu-Link.com,2013-08-02 12:31:00,
2013-08-02 08:46:00,71.6,66.8,29.75,South,180,0.0,-999.0,85,-99.99,,,0.00,Acu-Link.com,2013-08-02 12:46:00,
2013-08-02 09:01:00,71.6,66.5,29.75,SSW,202,0.0,-999.0,84,-99.99,,,0.00,Acu-Link.com,2013-08-02 13:01:00,
2013-08-02 09:31:00,72.0,67.2,29.75,SW,225,0.0,-999.0,85,-99.99,,,0.00,Acu-Link.com,2013-08-02 13:31:00,
2013-08-02 09:46:00,73.0,67.9,29.74,WSW,247,0.0,-999.0,84,-99.99,,,0.00,Acu-Link.com,2013-08-02 13:46:00,
2013-08-02 10:01:00,75.9,69.3,29.75,WNW,292,0.0,-999.0,80,-99.99,,,0.00,Acu-Link.com,2013-08-02 14:01:00,
2013-08-02 10:16:00,75.7,68.3,29.75,WSW,247,0.0,-999.0,78,-99.99,,,0.00,Acu-Link.com,2013-08-02 14:16:00,
2013-08-02 10:31:00,77.0,68.5,29.76,WSW,247,1.7,-999.0,75,-99.99,,,0.00,Acu-Link.com,2013-08-02 14:31:00,
2013-08-02 10:47:00,77.5,67.7,29.75,SW,225,0.0,-999.0,72,-99.99,,,0.00,Acu-Link.com,2013-08-02 14:47:00,
2013-08-02 11:02:00,78.1,66.7,29.75,NNW,337,2.7,-999.0,68,-99.99,,,0.00,Acu-Link.com,2013-08-02 15:02:00,
2013-08-02 11:17:00,78.4,66.9,29.75,SW,225,1.7,-999.0,68,-99.99,,,0.00,Acu-Link.com,2013-08-02 15:17:00,
2013-08-02 11:32:00,78.1,66.2,29.75,West,270,2.2,-999.0,67,-99.99,,,0.00,Acu-Link.com,2013-08-02 15:32:00,
2013-08-02 11:47:00,79.9,67.1,29.75,West,270,4.2,-999.0,65,-99.99,,,0.00,Acu-Link.com,2013-08-02 15:47:00,
2013-08-02 12:02:00,79.9,67.5,29.76,SW,225,2.7,-999.0,66,-99.99,,,0.00,Acu-Link.com,2013-08-02 16:02:00,
2013-08-02 12:17:00,80.1,66.3,29.76,WSW,247,3.2,-999.0,63,-99.99,,,0.00,Acu-Link.com,2013-08-02 16:17:00,
2013-08-02 12:32:00,80.1,67.7,29.76,WSW,247,2.2,-999.0,66,-99.99,,,0.00,Acu-Link.com,2013-08-02 16:32:00,
2013-08-02 12:47:00,80.2,66.9,29.75,West,270,5.8,-999.0,64,-99.99,,,0.00,Acu-Link.com,2013-08-02 16:47:00,
2013-08-02 13:03:00,80.1,65.9,29.75,SW,225,2.2,-999.0,62,-99.99,,,0.00,Acu-Link.com,2013-08-02 17:03:00,
2013-08-02 13:18:00,81.3,65.6,29.75,SW,225,2.2,-999.0,59,-99.99,,,0.00,Acu-Link.com,2013-08-02 17:18:00,
2013-08-02 13:33:00,80.8,64.6,29.75,WSW,247,2.2,-999.0,58,-99.99,,,0.00,Acu-Link.com,2013-08-02 17:33:00,
2013-08-02 13:48:00,81.0,64.3,29.76,WSW,247,1.1,-999.0,57,-99.99,,,0.00,Acu-Link.com,2013-08-02 17:48:00,
2013-08-02 14:03:00,81.9,64.6,29.77,SSW,202,6.8,-999.0,56,-99.99,,,0.00,Acu-Link.com,2013-08-02 18:03:00,
2013-08-02 14:18:00,82.9,64.5,29.76,SSW,202,2.7,-999.0,54,-99.99,,,0.00,Acu-Link.com,2013-08-02 18:18:00,
2013-08-02 14:34:00,82.6,64.2,29.76,SSW,202,1.7,-999.0,54,-99.99,,,0.00,Acu-Link.com,2013-08-02 18:34:00,
2013-08-02 14:49:00,81.5,63.7,29.76,West,270,2.7,-999.0,55,-99.99,,,0.00,Acu-Link.com,2013-08-02 18:49:00,
2013-08-02 15:04:00,82.9,63.4,29.75,SW,225,1.7,-999.0,52,-99.99,,,0.00,Acu-Link.com,2013-08-02 19:04:00,
2013-08-02 15:19:00,82.6,65.3,29.74,SW,225,1.7,-999.0,56,-99.99,,,0.00,Acu-Link.com,2013-08-02 19:19:00,
2013-08-02 15:34:00,82.6,63.7,29.75,West,270,4.2,-999.0,53,-99.99,,,0.00,Acu-Link.com,2013-08-02 19:34:00,
2013-08-02 15:49:00,82.8,65.0,29.74,West,270,4.2,-999.0,55,-99.99,,,0.00,Acu-Link.com,2013-08-02 19:49:00,
2013-08-02 16:04:00,82.4,66.6,29.74,SW,225,2.7,-999.0,59,-99.99,,,0.00,Acu-Link.com,2013-08-02 20:04:00,
2013-08-02 16:19:00,81.3,67.0,29.74,SW,225,2.7,-999.0,62,-99.99,,,0.00,Acu-Link.com,2013-08-02 20:19:00,
2013-08-02 16:34:00,83.7,68.3,29.74,SSE,157,0.0,-999.0,60,-99.99,,,0.00,Acu-Link.com,2013-08-02 20:34:00,
2013-08-02 16:50:00,82.4,68.0,29.73,SW,225,0.0,-999.0,62,-99.99,,,0.00,Acu-Link.com,2013-08-02 20:50:00,
2013-08-02 17:05:00,80.8,67.9,29.74,WSW,247,0.0,-999.0,65,-99.99,,,0.00,Acu-Link.com,2013-08-02 21:05:00,
2013-08-02 17:20:00,81.1,66.8,29.73,West,270,0.0,-999.0,62,-99.99,,,0.00,Acu-Link.com,2013-08-02 21:20:00,
2013-08-02 17:35:00,82.9,67.1,29.73,SW,225,2.2,-999.0,59,-99.99,,,0.00,Acu-Link.com,2013-08-02 21:35:00,
2013-08-02 17:50:00,81.9,67.1,29.73,SSW,202,0.0,-999.0,61,-99.99,,,0.00,Acu-Link.com,2013-08-02 21:50:00,
2013-08-02 18:05:00,81.1,67.3,29.72,SW,225,0.0,-999.0,63,-99.99,,,0.00,Acu-Link.com,2013-08-02 22:05:00,
2013-08-02 18:20:00,80.8,68.4,29.72,SW,225,0.0,-999.0,66,-99.99,,,0.00,Acu-Link.com,2013-08-02 22:20:00,
2013-08-02 18:35:00,80.2,67.8,29.73,SW,225,0.0,-999.0,66,-99.99,,,0.00,Acu-Link.com,2013-08-02 22:35:00,
2013-08-02 18:50:00,80.2,68.2,29.73,South,180,0.0,-999.0,67,-99.99,,,0.00,Acu-Link.com,2013-08-02 22:50:00,
2013-08-02 19:05:00,79.5,68.0,29.73,South,180,0.0,-999.0,68,-99.99,,,0.00,Acu-Link.com,2013-08-02 23:05:00,
2013-08-02 19:21:00,78.8,67.7,29.73,SSW,202,0.0,-999.0,69,-99.99,,,0.00,Acu-Link.com,2013-08-02 23:21:00,
2013-08-02 19:36:00,79.9,67.9,29.72,South,180,0.0,-999.0,67,-99.99,,,0.00,Acu-Link.com,2013-08-02 23:36:00,
2013-08-02 19:51:00,81.1,68.2,29.72,WNW,292,0.0,-999.0,65,-99.99,,,0.00,Acu-Link.com,2013-08-02 23:51:00,
2013-08-02 20:06:00,78.8,68.6,29.72,SW,225,0.0,-999.0,71,-99.99,,,0.00,Acu-Link.com,2013-08-03 00:06:00,
2013-08-02 20:21:00,76.5,68.4,29.72,SW,225,0.0,-999.0,76,-99.99,,,0.00,Acu-Link.com,2013-08-03 00:21:00,
2013-08-02 20:36:00,74.8,67.8,29.71,West,270,0.0,-999.0,79,-99.99,,,0.00,Acu-Link.com,2013-08-03 00:36:00,
2013-08-02 20:52:00,73.2,67.0,29.71,WSW,247,0.0,-999.0,81,-99.99,,,0.00,Acu-Link.com,2013-08-03 00:52:00,
2013-08-02 21:07:00,72.0,67.2,29.73,WNW,292,0.0,-999.0,85,-99.99,,,0.00,Acu-Link.com,2013-08-03 01:07:00,
2013-08-02 21:22:00,70.9,66.8,29.73,WSW,247,0.0,-999.0,87,-99.99,,,0.00,Acu-Link.com,2013-08-03 01:22:00,
2013-08-02 21:37:00,69.4,68.8,29.74,SSE,157,0.0,-999.0,98,-99.99,,,0.00,Acu-Link.com,2013-08-03 01:37:00,
2013-08-02 21:52:00,68.4,67.8,29.74,ESE,112,0.0,-999.0,98,-99.99,,,0.00,Acu-Link.com,2013-08-03 01:52:00,
2013-08-02 22:07:00,67.8,67.2,29.75,West,270,0.0,-999.0,98,-99.99,,,0.00,Acu-Link.com,2013-08-03 02:07:00,
2013-08-02 22:22:00,67.5,66.9,29.75,West,270,0.0,-999.0,98,-99.99,,,0.00,Acu-Link.com,2013-08-03 02:22:00,
2013-08-02 22:37:00,67.3,66.7,29.75,SSW,202,0.0,-999.0,98,-99.99,,,0.00,Acu-Link.com,2013-08-03 02:37:00,
2013-08-02 22:52:00,67.1,66.5,29.75,WSW,247,0.0,-999.0,98,-99.99,,,0.00,Acu-Link.com,2013-08-03 02:52:00,
2013-08-02 23:07:00,67.3,66.7,29.75,WSW,247,0.0,-999.0,98,-99.99,,,0.00,Acu-Link.com,2013-08-03 03:07:00,
2013-08-02 23:23:00,67.6,67.0,29.74,SW,225,0.0,-999.0,98,-99.99,,,0.00,Acu-Link.com,2013-08-03 03:23:00,
2013-08-02 23:38:00,67.8,67.2,29.74,WSW,247,0.0,-999.0,98,-99.99,,,0.00,Acu-Link.com,2013-08-03 03:38:00,
2013-08-02 23:53:00,67.8,67.2,29.74,WNW,292,0.0,-999.0,98,-99.99,,,0.00,Acu-Link.com,2013-08-03 03:53:00,